User: anonymous   Login
Location: Unspecified
(0.0000°N, 0.0000°E)
Time: 12:56:43
(UTC+00:00)
Language:

ASTRA 1KR - Orbit

View from above orbital plane
View from above orbital plane
View from above satellite
View from above satellite

Ground track
Ground track

The orbit data is extracted from the following two-line orbital elements,

1 29055U 06012A   16043.99044265  .00000102  00000-0  00000+0 0  9995
2 29055   0.0955 295.9234 0005202  14.4025 207.8941  1.00274323 35877
Epoch (UTC): 12 February 2016 23:46:14
Eccentricity: 0.0005202
inclination: 0.0955°
perigee height: 35763 km
apogee height: 35807 km
right ascension of ascending node: 295.9234°
argument of perigee: 14.4025°
revolutions per day: 1.00274323
mean anomaly at epoch: 207.8941°
orbit number at epoch: 3587

The dashed part of the orbit path shows where the satellite is in the earth's shadow,  

DLR